Regional Weather Roundup
Issued by NWS Sioux Falls, SD

Home | Current Version | Previous Version | Text Only | Print | Product List | Glossary Off
Versions: 1 2 3 4 5 6 7 8 9 10 11 12 13 14 15 16 17 18 19 20 21 22 23 24 25 26 27 28 29 30 31 32 33 34 35 36 37 38 39 40 41 42 43 44 45 46 47 48 49 50

000
ASUS43 KFSD 192202
RWRFSD

WEATHER ROUNDUP FOR SE SOUTH DAKOTA/SW MINNESOTA/NW IOWA
NATIONAL WEATHER SERVICE SIOUX FALLS SD
400 PM CST MON FEB 19 2018

NOTE: "FAIR" INDICATES FEW OR NO CLOUDS BELOW 12,000 FEET WITH NO
SIGNIFICANT WEATHER AND OR OBSTRUCTIONS TO VISIBILITY.


SDZ038>040-050-052>070-192300-
SOUTHEAST SOUTH DAKOTA

CITY           SKY/WX    TMP DP  RH WIND       PRES   REMARKS
CHAMBERLAIN    LGT SNOW  12   8  85 N16G22    29.95S WCI  -4
HURON          LGT SNOW  12   7  80 N20G28    29.97S WCI  -6
MADISON        LGT SNOW  12  12 100 NE22G28   29.86F WCI  -7
MITCHELL       LGT SNOW  14  10  84 N22       29.94F FOG     WCI  -4
SIOUX FALLS    LGT SNOW  16  12  84 NE18G28   29.87S FOG     WCI   0
WINNER         LGT SNOW  10   5  80 N20       29.94S WCI  -9
YANKTON        FLURRIES  17  14  88 N14       29.89R WCI   3
$$

MNZ071-072-080-081-089-090-097-098-192300-
SOUTHWEST MINNESOTA

CITY           SKY/WX    TMP DP  RH WIND       PRES   REMARKS
FAIRMONT       MIX PCPN  21  20  96 N20       29.81R FOG     WCI   6
JACKSON        CLOUDY    19  18  93 N17       29.80F FOG     WCI   4
LUVERNE        LGT SNOW  18  14  86 N12G20    29.85F WCI   5
MARSHALL       LGT SNOW  15  12  88 N18       29.93R FOG     WCI  -2
MONTEVIDEO     LGT SNOW  16  12  86 NE18      29.97R WCI  -1
PIPESTONE      LGT SNOW  12  10  92 NE21G28   29.85S WCI  -6
REDWOOD FALLS  CLOUDY    17  13  84 N12G21    29.91R FOG     WCI   4
TRACY          LGT SNOW  17  15  93 N15G21    29.89R WCI   2
WINDOM         LGT SNOW  19   7  58 N18       29.83R VSB 3/4 WCI   4
WORTHINGTON    MIX PCPN  17  15  92 N22G30    29.82S FOG     WCI   0
$$

IAZ001>003-012>014-020>022-031-032-NEZ013-014-SDZ071-192300-
NORTHWEST IOWA

CITY           SKY/WX    TMP DP  RH WIND       PRES   REMARKS
CHEROKEE       CLOUDY    20  19  98 N9        29.84R FOG     WCI   9
DENISON        MOSUNNY   23  23 100 N12       29.82R WCI  12
ESTHERVILLE    CLOUDY    19  18  95 MISG      29.80R FOG
LE MARS        PTSUNNY   19  18  93 MISG      29.86R FOG
ORANGE CITY    CLOUDY    19  19 100 N12G18    29.83R FOG     WCI   7
SHELDON        PTSUNNY   19  18  93 MISG      29.80S FOG
SIOUX CITY     CLOUDY    20  17  88 N15       29.87R WCI   6
SPENCER        MIX PCPN  20  18  92 N21       29.80S VSB 1   WCI   4
STORM LAKE     SUNNY     19  19 100 MISG      29.80R FOG
$$

ABBREVIATIONS USED IN REMARKS
   TC - TEMPERATURE IN CELSIUS
  WCI - WIND CHILL INDEX
   HX - HEAT INDEX
  VSB - VISIBILITY




USA.gov is the U.S. government's official web portal to all federal, state and local government web resources and services.